Location: *
(47.6569°N, 7.4256°E)
Time: 02:51:45
(UTC+00:00)

Cosmos 1862 Rocket - Pass Details

Date: 14 December 2019
Orbit: 604 x 633 km, 82.5° (Epoch: 19 January)

Event Time Altitude Azimuth Distance (km) Brightness Sun altitude
Rises 16:18:25 0° 185° (S) 2,865 7.5 -6.6°
Reaches altitude 10° 16:20:37 10° 184° (S) 1,970 6.6 -6.9°
Maximum altitude 16:24:59 82° 97° (E) 632 3.5 -7.5°
Drops below altitude 10° 16:29:26 10° 11° (N) 2,005 5.8 -8.2°
Sets 16:31:41 0° 11° (N) 2,921 6.7 -8.6°
